Location: Arbon
(43.0005°N, 0.7472°E)
Time: 17:02:29
(UTC+00:00)

Cosmos 2219 Rocket - Pass Details

Date: 07 August 2020
Orbit: 826 x 848 km, 71.0° (Epoch: 22 September)

Event Time Altitude Azimuth Distance (km) Brightness Sun altitude
Rises 01:48:13 0° 322° (NW) 3,414 5.7 -25.9°
Reaches altitude 10° 01:51:11 10° 307° (NW) 2,476 4.7 -25.7°
Enters shadow 01:53:24 18° 287° (WNW) 1,964 4.0 -25.5°
